When you browse on this site, cookies collect data to enhance your experience and personalize the content and advertising you see.
Visit our Privacy Policy to learn more. By continuing to use the site, you agree to this use of cookies and data.
  • în România
  • Lista ţărilor
  • Pe 7 zile
  • Temperatura apei
  • Hartă satelitară
  • Meteo pe hartă
  • Widget-uri
  • user-avatar
    Intrare

    Meteo pe oră la Ituni

    Astăzi, 20 Ianuarie, Duminică

    Timp Temperatura Precipitaţii Vânt Presiune Umiditate
    00:00 +24°C° 0.2 mm 1 m/s 754 mmHg 98%
    01:00 +22°C° 0.2 mm 0 m/s 754 mmHg 98%
    02:00 +22°C° 0.2 mm 0 m/s 754 mmHg 99%
    03:00 +22°C° 0.1 mm 0 m/s 754 mmHg 99%
    04:00 +22°C° 0.1 mm 0 m/s 754 mmHg 99%
    05:00 +21°C° 0.1 mm 0 m/s 754 mmHg 99%
    06:00 +22°C° 0.1 mm 0 m/s 754 mmHg 96%
    07:00 +23°C° 0.1 mm 0 m/s 754 mmHg 94%
    08:00 +24°C° 0.1 mm 0 m/s 755 mmHg 91%
    09:00 +28°C° 0.2 mm 1 m/s 755 mmHg 82%
    10:00 +30°C° 0.2 mm 1 m/s 755 mmHg 72%
    11:00 +31°C° 0.2 mm 1 m/s 755 mmHg 63%
    12:00 +31°C° 0.7 mm 2 m/s 754 mmHg 66%
    13:00 +31°C° 0.7 mm 2 m/s 753 mmHg 69%
    14:00 +31°C° 0.7 mm 2 m/s 752 mmHg 72%
    15:00 +31°C° 0.6 mm 2 m/s 752 mmHg 73%
    16:00 +30°C° 0.6 mm 2 m/s 752 mmHg 74%
    17:00 +29°C° 0.6 mm 2 m/s 752 mmHg 75%
    18:00 +28°C° 0 mm 2 m/s 752 mmHg 79%
    19:00 +27°C° 0 mm 2 m/s 753 mmHg 83%
    20:00 +25°C° 0 mm 1 m/s 753 mmHg 88%
    21:00 +25°C° 0 mm 1 m/s 754 mmHg 91%
    22:00 +24°C° 0 mm 1 m/s 754 mmHg 94%
    23:00 +22°C° 0 mm 0 m/s 754 mmHg 97%

    Mâine, 21 Ianuarie, Luni

    Timp Temperatura Precipitaţii Vânt Presiune Umiditate
    00:00 +22°C° 0 mm 0 m/s 754 mmHg 98%
    01:00 +22°C° 0 mm 0 m/s 754 mmHg 98%
    02:00 +21°C° 0 mm 0 m/s 753 mmHg 99%
    03:00 +22°C° 0.1 mm 0 m/s 753 mmHg 98%
    04:00 +22°C° 0.1 mm 0 m/s 753 mmHg 98%
    05:00 +22°C° 0.1 mm 0 m/s 753 mmHg 98%
    06:00 +25°C° 0.1 mm 1 m/s 754 mmHg 95%
    07:00 +25°C° 0.1 mm 1 m/s 755 mmHg 92%
    08:00 +26°C° 0.1 mm 1 m/s 755 mmHg 89%
    09:00 +28°C° 0.1 mm 1 m/s 755 mmHg 79%
    10:00 +30°C° 0.1 mm 2 m/s 756 mmHg 68%
    11:00 +32°C° 0.1 mm 2 m/s 756 mmHg 57%
    12:00 +32°C° 0 mm 2 m/s 755 mmHg 55%
    13:00 +34°C° 0 mm 2 m/s 754 mmHg 53%
    14:00 +34°C° 0 mm 2 m/s 753 mmHg 51%
    15:00 +32°C° 0 mm 2 m/s 753 mmHg 54%
    16:00 +32°C° 0 mm 2 m/s 752 mmHg 57%
    17:00 +31°C° 0 mm 2 m/s 752 mmHg 60%
    18:00 +29°C° 0 mm 2 m/s 753 mmHg 67%
    19:00 +28°C° 0 mm 2 m/s 753 mmHg 74%
    20:00 +26°C° 0 mm 2 m/s 754 mmHg 81%
    21:00 +25°C° 0 mm 1 m/s 754 mmHg 86%
    22:00 +24°C° 0 mm 1 m/s 755 mmHg 91%
    23:00 +24°C° 0 mm 1 m/s 755 mmHg 96%

    Poimâine, 22 Ianuarie, Marţi

    Timp Temperatura Precipitaţii Vânt Presiune Umiditate
    00:00 +23°C° 0 mm 1 m/s 755 mmHg 97%
    01:00 +23°C° 0 mm 1 m/s 754 mmHg 98%
    02:00 +21°C° 0 mm 0 m/s 754 mmHg 99%
    03:00 +21°C° 0 mm 0 m/s 754 mmHg 99%
    04:00 +21°C° 0 mm 0 m/s 754 mmHg 99%
    05:00 +21°C° 0 mm 0 m/s 754 mmHg 99%
    06:00 +22°C° 0 mm 0 m/s 754 mmHg 94%
    07:00 +23°C° 0 mm 0 m/s 755 mmHg 90%
    08:00 +24°C° 0 mm 0 m/s 756 mmHg 86%
    09:00 +28°C° 0.1 mm 1 m/s 756 mmHg 77%
    10:00 +29°C° 0.1 mm 1 m/s 756 mmHg 68%
    11:00 +31°C° 0.1 mm 2 m/s 756 mmHg 59%
    12:00 +32°C° 0.1 mm 2 m/s 755 mmHg 55%
    13:00 +34°C° 0.1 mm 2 m/s 754 mmHg 52%
    14:00 +35°C° 0.1 mm 2 m/s 753 mmHg 49%
    15:00 +34°C° 0.1 mm 2 m/s 752 mmHg 54%
    16:00 +32°C° 0.1 mm 2 m/s 752 mmHg 59%
    17:00 +31°C° 0.1 mm 2 m/s 752 mmHg 64%
    18:00 +29°C° 0 mm 2 m/s 752 mmHg 71%
    19:00 +27°C° 0 mm 2 m/s 753 mmHg 78%
    20:00 +26°C° 0 mm 2 m/s 754 mmHg 85%
    21:00 +25°C° 0 mm 1 m/s 754 mmHg 89%
    22:00 +25°C° 0 mm 1 m/s 755 mmHg 93%
    23:00 +24°C° 0 mm 1 m/s 755 mmHg 97%

    23 Ianuarie, Miercuri

    Timp Temperatura Precipitaţii Vânt Presiune Umiditate
    00:00 +24°C° 0 mm 1 m/s 754 mmHg 97%
    01:00 +24°C° 0 mm 1 m/s 754 mmHg 98%
    02:00 +23°C° 0 mm 1 m/s 754 mmHg 99%
    03:00 +23°C° 0 mm 1 m/s 754 mmHg 99%
    04:00 +21°C° 0 mm 0 m/s 754 mmHg 99%
    05:00 +21°C° 0 mm 0 m/s 754 mmHg 99%
    06:00 +24°C° 0.1 mm 1 m/s 754 mmHg 96%
    07:00 +25°C° 0.1 mm 1 m/s 755 mmHg 93%
    08:00 +26°C° 0.1 mm 1 m/s 756 mmHg 90%
    09:00 +27°C° 0.3 mm 1 m/s 756 mmHg 83%
    10:00 +29°C° 0.3 mm 2 m/s 756 mmHg 75%
    11:00 +30°C° 0.3 mm 2 m/s 755 mmHg 67%
    12:00 +30°C° 0.6 mm 2 m/s 754 mmHg 69%
    13:00 +30°C° 0.6 mm 2 m/s 754 mmHg 71%
    14:00 +30°C° 0.6 mm 2 m/s 753 mmHg 72%
    15:00 +29°C° 0.6 mm 2 m/s 752 mmHg 76%
    16:00 +29°C° 0.6 mm 2 m/s 752 mmHg 79%
    17:00 +28°C° 0.6 mm 2 m/s 752 mmHg 83%
    18:00 +27°C° 0.1 mm 1 m/s 752 mmHg 86%
    19:00 +26°C° 0.1 mm 1 m/s 753 mmHg 89%
    20:00 +25°C° 0.1 mm 1 m/s 754 mmHg 92%
    21:00 +24°C° 0 mm 1 m/s 754 mmHg 94%
    22:00 +24°C° 0 mm 1 m/s 754 mmHg 96%
    23:00 +23°C° 0 mm 1 m/s 755 mmHg 97%

    24 Ianuarie, Joi

    Timp Temperatura Precipitaţii Vânt Presiune Umiditate
    00:00 +21°C° 0 mm 0 m/s 754 mmHg 98%
    01:00 +21°C° 0 mm 0 m/s 754 mmHg 98%
    02:00 +21°C° 0 mm 0 m/s 753 mmHg 98%
    03:00 +21°C° 0 mm 0 m/s 753 mmHg 98%
    04:00 +21°C° 0 mm 0 m/s 753 mmHg 98%
    05:00 +21°C° 0 mm 0 m/s 753 mmHg 98%
    06:00 +24°C° 0 mm 1 m/s 754 mmHg 95%
    07:00 +25°C° 0 mm 1 m/s 754 mmHg 92%
    08:00 +26°C° 0 mm 1 m/s 755 mmHg 88%
    09:00 +27°C° 0.2 mm 1 m/s 755 mmHg 80%
    10:00 +29°C° 0.2 mm 2 m/s 755 mmHg 71%
    11:00 +30°C° 0.2 mm 2 m/s 755 mmHg 62%
    12:00 +30°C° 0.1 mm 2 m/s 754 mmHg 68%
    13:00 +29°C° 0.1 mm 1 m/s 753 mmHg 74%
    14:00 +28°C° 0.1 mm 1 m/s 752 mmHg 80%
    15:00 +28°C° 0 mm 1 m/s 752 mmHg 74%
    16:00 +29°C° 0 mm 1 m/s 752 mmHg 69%
    17:00 +30°C° 0 mm 1 m/s 752 mmHg 64%
    18:00 +28°C° 0 mm 1 m/s 753 mmHg 69%
    19:00 +27°C° 0 mm 1 m/s 753 mmHg 74%
    20:00 +25°C° 0 mm 2 m/s 754 mmHg 80%
    21:00 +25°C° 0 mm 1 m/s 754 mmHg 84%
    22:00 +24°C° 0 mm 1 m/s 754 mmHg 89%
    23:00 +23°C° 0 mm 1 m/s 754 mmHg 93%

    25 Ianuarie, Vineri

    Timp Temperatura Precipitaţii Vânt Presiune Umiditate
    00:00 +23°C° 0 mm 1 m/s 754 mmHg 95%
    01:00 +23°C° 0 mm 1 m/s 754 mmHg 96%
    02:00 +22°C° 0 mm 1 m/s 753 mmHg 98%
    03:00 +22°C° 0 mm 1 m/s 753 mmHg 98%
    04:00 +22°C° 0 mm 1 m/s 753 mmHg 98%
    05:00 +22°C° 0 mm 1 m/s 753 mmHg 99%
    06:00 +23°C° 0 mm 1 m/s 754 mmHg 94%
    07:00 +24°C° 0 mm 1 m/s 754 mmHg 89%
    08:00 +26°C° 0 mm 1 m/s 755 mmHg 84%
    09:00 +28°C° 0.1 mm 1 m/s 755 mmHg 75%
    10:00 +30°C° 0.1 mm 2 m/s 755 mmHg 65%
    11:00 +31°C° 0.1 mm 2 m/s 755 mmHg 55%
    12:00 +32°C° 0.1 mm 2 m/s 754 mmHg 56%
    13:00 +32°C° 0.1 mm 2 m/s 753 mmHg 56%
    14:00 +32°C° 0.1 mm 2 m/s 752 mmHg 56%
    15:00 +30°C° 0.1 mm 2 m/s 752 mmHg 62%
    16:00 +29°C° 0.1 mm 1 m/s 752 mmHg 68%
    17:00 +28°C° 0.1 mm 1 m/s 752 mmHg 73%
    18:00 +27°C° 0 mm 1 m/s 752 mmHg 76%
    19:00 +26°C° 0 mm 1 m/s 752 mmHg 79%
    20:00 +25°C° 0 mm 2 m/s 753 mmHg 82%
    21:00 +25°C° 0 mm 1 m/s 753 mmHg 87%
    22:00 +24°C° 0 mm 1 m/s 754 mmHg 91%
    23:00 +23°C° 0 mm 1 m/s 754 mmHg 96%
    Arată mai mult